Погода в Черкесске

Россия / Карачаево-Черкесская Республика     44°13′36″N   42°02′48″E
темп.,
°C
ветер,
м/с
пор.,
м/с
влажн.,
%
обл.,
%
осадки,
мм/ч
давл.,
гПа
погр.,
м
14 мая, пт
пт1400:00+13ю22874 0.0 101320
03:00+12ю335715 0.0 101326
06:00+13ю33560 0.0 101332
09:00+23вюв22460 0.0 1012282
12:00+26в45455 0.0 1012611
15:00+27в57503 0.0 1011741
18:00+23вюв5107069 0.0 1011315
21:00+18ююв22825 0.0 101119
15 мая, сб
сб1500:00+15юз336032 0.0 101327
03:00+15юз335149 0.0 101331
06:00+15юз33640 0.0 101435
09:00+22зсз22560 0.0 1014367
12:00+25с32581 0.0 1013889
15:00+26ссв44585 0.0 10121198
18:00+23ссв357710 0.7 1012172
21:00+19в1187100 1.9 101311
16 мая, вс
вс1600:00+16ююз338811 0.3 101234
03:00+15ю2285100 0.3 101120
06:00+15ююз22837 0.0 101142
09:00+21в1266100 0.0 1009484
12:00+25в4561100 0.0 10081183
15:00+26в77605 0.0 10061378
18:00+22в5107597 0.0 1006500
21:00+16юв2271100 0.0 100617
17 мая, пн
пн1700:00+16ю336836 0.0 100523
03:00+15ю336719 0.0 100525
06:00+16ю22695 0.0 100527
09:00+23сз11525 0.0 1005359
12:00+26ссз545595 0.0 1005950
15:00+18сз479170 9.0 1009266
18:00+19зсз347791 0.2 1009334
21:00+15юз229299 0.3 101128
18 мая, вт
вт1800:00+16юз229295 0.1 101031
03:00+13зсз229989 0.3 101154
06:00+14зюз2495100 1.4 1013284
09:00+14з2696100 4.5 1014370
12:00+15з3585100 0.8 1014492
15:00+20зсз2366100 1.0 10131228
18:00+18сз3484100 1.4 1014395
21:00+13зюз22949 3.3 101618